TimeICT,TemperatureF,Dew PointF,Humidity,Sea Level PressureIn,VisibilityMPH,Wind Direction,Wind SpeedMPH,Gust SpeedMPH,PrecipitationIn,Events,Conditions,WindDirDegrees,DateUTC
12:00 AM,78.8,71.6,78,29.83,4.3,ENE,4.6,-,N/A,,Scattered Clouds,60,2013-01-08 17:00:00
12:30 AM,78.8,71.6,78,29.83,4.3,ENE,4.6,-,N/A,,Scattered Clouds,70,2013-01-08 17:30:00
1:00 AM,78.8,71.6,78,29.83,4.3,Variable,3.5,-,N/A,,Scattered Clouds,0,2013-01-08 18:00:00
7:00 AM,,,,,,Calm,Calm,,,,,,2013-01-09 00:00:00
7:00 AM,77.0,73.4,89,29.83,5.6,NNW,3.5,-,N/A,,Mostly Cloudy,340,2013-01-09 00:00:00
7:30 AM,77.0,73.4,89,29.83,6.2,North,3.5,-,N/A,,Mostly Cloudy,350,2013-01-09 00:30:00
8:00 AM,77.0,73.4,89,29.86,6.2,North,3.5,-,N/A,,Mostly Cloudy,350,2013-01-09 01:00:00
8:30 AM,78.8,73.4,83,29.89,6.2,Calm,Calm,-,N/A,,Mostly Cloudy,0,2013-01-09 01:30:00
9:00 AM,80.6,71.6,74,29.89,6.2,NW,3.5,-,N/A,,Mostly Cloudy,310,2013-01-09 02:00:00
9:30 AM,82.4,71.6,70,29.89,6.2,NNE,2.3,-,N/A,,Mostly Cloudy,30,2013-01-09 02:30:00
10:00 AM,84.2,69.8,62,29.89,6.2,Variable,2.3,-,N/A,,Scattered Clouds,0,2013-01-09 03:00:00
10:30 AM,86.0,69.8,58,29.89,6.2,East,4.6,-,N/A,,Scattered Clouds,80,2013-01-09 03:30:00
11:00 AM,86.0,69.8,58,29.86,6.2,North,2.3,-,N/A,,Scattered Clouds,10,2013-01-09 04:00:00
11:30 AM,87.8,69.8,55,29.86,6.2,East,8.1,-,N/A,,Mostly Cloudy,90,2013-01-09 04:30:00
12:00 PM,86.0,69.8,58,29.83,6.2,SSW,6.9,-,N/A,,Mostly Cloudy,200,2013-01-09 05:00:00
12:30 PM,87.8,69.8,55,29.83,6.2,SSE,5.8,-,N/A,,Scattered Clouds,150,2013-01-09 05:30:00
1:00 PM,87.8,69.8,55,29.80,6.2,South,5.8,-,N/A,,Scattered Clouds,190,2013-01-09 06:00:00
1:30 PM,89.6,71.6,55,29.80,6.2,SSE,5.8,-,N/A,,Scattered Clouds,150,2013-01-09 06:30:00
2:00 PM,87.8,71.6,58,29.77,6.2,SSW,4.6,-,N/A,,Scattered Clouds,200,2013-01-09 07:00:00
2:30 PM,87.8,71.6,58,29.77,6.2,SW,9.2,-,N/A,,Scattered Clouds,220,2013-01-09 07:30:00
3:00 PM,89.6,71.6,55,29.74,6.2,South,4.6,-,N/A,,Scattered Clouds,180,2013-01-09 08:00:00
3:30 PM,89.6,69.8,52,29.74,6.2,SW,4.6,-,N/A,,Scattered Clouds,230,2013-01-09 08:30:00
4:00 PM,87.8,69.8,55,29.74,6.2,South,5.8,-,N/A,,Scattered Clouds,170,2013-01-09 09:00:00
4:30 PM,87.8,71.6,58,29.74,6.2,South,6.9,-,N/A,,Scattered Clouds,170,2013-01-09 09:30:00
5:00 PM,86.0,71.6,62,29.77,6.2,South,6.9,-,N/A,,Scattered Clouds,190,2013-01-09 10:00:00
5:30 PM,84.2,71.6,66,29.77,6.2,SSE,4.6,-,N/A,,Scattered Clouds,160,2013-01-09 10:30:00
6:30 PM,82.4,73.4,74,29.77,6.2,SSE,3.5,-,N/A,,Partly Cloudy,160,2013-01-09 11:30:00
7:00 PM,80.6,73.4,79,29.77,6.2,SE,3.5,-,N/A,,Partly Cloudy,130,2013-01-09 12:00:00
7:30 PM,80.6,73.4,79,29.77,5.6,Calm,Calm,-,N/A,,Unknown,0,2013-01-09 12:30:00
8:00 PM,80.6,73.4,79,29.80,5.6,ESE,3.5,-,N/A,,Unknown,110,2013-01-09 13:00:00
8:30 PM,78.8,73.4,83,29.80,5.6,Calm,Calm,-,N/A,,Unknown,0,2013-01-09 13:30:00
9:00 PM,80.6,73.4,79,29.80,5.6,ESE,3.5,-,N/A,,Unknown,110,2013-01-09 14:00:00
9:30 PM,78.8,73.4,83,29.80,5.6,North,2.3,-,N/A,,Unknown,360,2013-01-09 14:30:00
10:00 PM,78.8,73.4,83,29.83,5.6,WNW,3.5,-,N/A,,Unknown,300,2013-01-09 15:00:00
10:30 PM,77.0,73.4,89,29.83,5.6,NE,2.3,-,N/A,,Unknown,40,2013-01-09 15:30:00
11:00 PM,77.0,75.2,94,29.83,5.0,Calm,Calm,-,N/A,,Unknown,0,2013-01-09 16:00:00
11:30 PM,77.0,73.4,89,29.83,5.0,NE,2.3,-,N/A,,Unknown,50,2013-01-09 16:30:00